Location: Asheville, NC
(35.6000°N, 82.5500°W)
Time: 23:06:16
(UTC-04:00)

CUBEBUG 2 - Visible Passes

Search period start: 23 April 2018 00:00
Search period end: 03 May 2018 00:00
Orbit: 586 x 700 km, 97.6° (Epoch: 23 April)

Date Brightness Start Highest point End Pass type
(mag) Time Alt. Az. Time Alt. Az. Time Alt. Az.
23 Apr ? 20:50:12 10° SW 20:52:41 16° W 20:55:12 10° NW visible
27 Apr ? 20:51:13 10° SW 20:53:38 15° W 20:56:04 10° WNW visible
01 May ? 20:52:12 10° SW 20:54:34 15° W 20:56:58 10° WNW visible
